Waarnemingen

Advertentie
Mijn weer
Cherbourg, Frankrijk (7024): temperatuur & dauwpunt: 28.11.2020 00:00:00 - 04.12.2020 00:00:00 (CET)Cherbourg, Frankrijk (7024): temperatuur 5cm: 28.11.2020 00:00:00 - 04.12.2020 00:00:00 (CET)Cherbourg, Frankrijk (7024): temperatuur -20cm & temperatuur -100cm: 28.11.2020 00:00:00 - 04.12.2020 00:00:00 (CET)Cherbourg, Frankrijk (7024): windsnelheid & windstoten: 28.11.2020 00:00:00 - 04.12.2020 00:00:00 (CET)Cherbourg, Frankrijk (7024): windrichting: 28.11.2020 00:00:00 - 04.12.2020 00:00:00 (CET)Cherbourg, Frankrijk (7024): luchtdruk: 28.11.2020 00:00:00 - 04.12.2020 00:00:00 (CET)Cherbourg, Frankrijk (7024): zicht: 28.11.2020 00:00:00 - 04.12.2020 00:00:00 (CET)Cherbourg, Frankrijk (7024): Zonneschijnduur: 28.11.2020 00:00:00 - 04.12.2020 00:00:00 (CET)Cherbourg, Frankrijk (7024): neerslag: 28.11.2020 00:00:00 - 04.12.2020 00:00:00 (CET)
Datum & Tijd tt [°C] td [°C] tt 5cm [°C] tt -20cm [°C] tt -100cm [°C] ff [km/u] ff [kn] fx [km/u] fx [kn] dd ppp [hPa] vv [km] sd [min] rr [mm]
04.12.2020 00:00:00 5,4 4,4 3,7 9,4 11,4 14 8 41 22 NW 975,6 58 0 3,2
03.12.2020 23:00:00 4,6 3,7 3,8 9,4 11,4 17 9 37 20 NW 975,7 6 0 6,1
03.12.2020 22:00:00 4,6 3,9 4,1 9,4 11,4 11 6 24 13 NNW 976,0 8 0 2,8
03.12.2020 21:00:00 4,6 4,0 4,3 9,4 11,4 4 2 15 8 ZZO 976,6 7 0 4,0
03.12.2020 20:00:00 5,1 4,5 4,7 9,5 11,4 8 4 16 9 Z 978,2 9 0 2,0
03.12.2020 19:00:00 5,4 4,8 5,1 9,5 11,5 10 5 27 14 ZZW 979,5 6 0 4,3
03.12.2020 18:00:00 5,9 5,2 5,5 9,5 11,5 13 7 35 19 Z 980,9 6 0 1,8
03.12.2020 17:00:00 6,5 5,6 5,9 9,5 11,4 22 12 53 29 ZW 982,0 6 4 1,0
03.12.2020 16:00:00 6,3 5,1 5,8 9,5 11,5 28 15 53 29 ZW 983,2 12 1 0,4
03.12.2020 15:00:00 7,7 6,6 6,9 9,6 11,5 31 17 52 28 ZZW 984,1 17 0 0,2
03.12.2020 14:00:00 7,2 6,1 6,7 9,6 11,5 33 18 64 35 ZZW 986,2 20 0 1,6
03.12.2020 13:00:00 7,0 6,4 6,6 9,6 11,5 34 19 56 30 ZZW 988,7 13 0 1,8
03.12.2020 12:00:00 6,8 6,2 6,5 9,7 11,5 30 16 58 31 ZZW 991,4 9 0 2,0
03.12.2020 11:00:00 6,7 6,1 6,3 9,7 11,5 29 16 45 24 ZZW 993,9 6 0 1,3
03.12.2020 10:00:00 6,7 6,0 5,9 9,7 11,5 27 15 46 25 ZZW 996,1 9 0 1,4
03.12.2020 09:00:00 6,3 5,6 5,7 9,7 11,5 25 13 41 22 ZZW 998,3 7 0 1,6
03.12.2020 08:00:00 6,2 5,6 5,5 9,8 11,5 16 9 28 15 ZZW 1000,1 4,8 0 1,6
03.12.2020 07:00:00 5,9 5,3 5,4 9,8 11,5 14 7 26 14 ZZW 1001,9 16 0 0,2
03.12.2020 06:00:00 5,8 4,8 5,2 9,8 11,5 13 7 22 12 Z 1003,8 51 0 0,0
03.12.2020 05:00:00 5,6 4,2 4,7 9,8 11,5 10 6 16 9 Z 1005,5 60 0 0,0
03.12.2020 04:00:00 5,7 3,9 4,7 9,8 11,5 12 7 16 9 ZZW 1007,2 19 0 0,0
03.12.2020 03:00:00 6,2 3,4 4,8 9,9 11,5 14 7 28 15 WZW 1008,7 60 0 0,0
03.12.2020 02:00:00 6,1 3,1 4,9 9,9 11,5 14 7 24 13 WZW 1009,8 60 0 0,0
03.12.2020 01:00:00 7,8 3,5 6,2 9,9 11,5 18 10 27 15 WNW 1011,1 60 0 0,0
03.12.2020 00:00:00 7,6 2,3 6,2 9,9 11,5 14 8 31 17 NW 1012,0 60 0 0,0
02.12.2020 23:00:00 8,0 3,1 6,6 9,9 11,6 14 8 39 21 NW 1013,1 60 0 0,0
02.12.2020 22:00:00 8,3 5,0 7,0 9,9 11,6 21 11 43 23 WNW 1014,0 50 0 0,2
02.12.2020 21:00:00 8,4 7,8 7,6 9,9 11,5 9 5 25 14 NW 1014,2 16 0 0,0
02.12.2020 20:00:00 8,0 7,2 7,7 9,9 11,6 18 10 32 17 NNW 1014,6 11 0 0,4
02.12.2020 19:00:00 8,8 7,6 7,4 9,8 11,5 7 4 18 10 NW 1014,9 60 0 0,0
02.12.2020 18:00:00 7,7 7,3 7,3 9,9 11,6 10 5 28 15 ZW 1015,2 10 0 0,2
02.12.2020 17:00:00 7,7 6,6 7,2 9,8 11,6 18 10 29 16 ZZW 1015,8 7 0 0,0
02.12.2020 16:00:00 8,0 5,6 8,1 9,8 11,6 16 9 23 13 ZZW 1016,4 60 0 0,0
02.12.2020 15:00:00 7,9 5,0 8,3 9,8 11,6 11 6 19 10 ZW 1017,1 20 0 0,0
02.12.2020 14:00:00 8,2 4,4 8,9 9,8 11,6 13 7 20 11 ZW 1018,4 59 0 0,0
02.12.2020 13:00:00 8,4 4,0 8,6 9,8 11,6 12 6 16 9 WZW 1019,6 53 9 0,0
02.12.2020 12:00:00 7,5 4,4 7,6 9,8 11,6 8 4 11 6 ZW 1020,4 31 0 0,0
02.12.2020 11:00:00 6,7 4,4 5,9 9,8 11,6 6 3 10 5 ZZW 1021,2 53 0 0,0
02.12.2020 10:00:00 6,0 3,5 5,9 9,9 11,6 6 3 8 4 Z 1021,7 45 0 0,0
02.12.2020 09:00:00 6,9 2,6 5,0 9,9 11,6 3 1 9 5 NNW 1022,0 60 0 0,0
02.12.2020 08:00:00 6,6 2,3 3,4 9,9 11,6 6 3 9 5 NNW 1022,1 60 0 0,0
02.12.2020 07:00:00 6,0 2,1 3,1 9,9 11,6 5 3 13 7 N 1022,4 60 0 0,0
02.12.2020 06:00:00 6,2 2,1 3,6 10,0 11,6 5 3 10 6 NNW 1023,0 60 0 0,0
02.12.2020 05:00:00 6,1 2,4 4,4 10,0 11,6 8 4 14 8 N 1023,7 60 0 0,0
02.12.2020 04:00:00 6,5 2,6 5,0 10,0 11,6 10 5 18 10 N 1024,2 60 0 0,0
02.12.2020 03:00:00 6,8 2,3 5,6 10,0 11,6 13 7 21 11 N 1024,8 60 0 0,0
02.12.2020 02:00:00 7,0 2,9 5,8 10,0 11,6 11 6 22 12 N 1025,0 60 0 0,0
02.12.2020 01:00:00 7,0 3,2 5,4 10,1 11,6 12 7 22 12 N 1025,4 60 0 0,0
02.12.2020 00:00:00 6,8 3,0 4,8 10,1 11,6 13 7 28 15 N 1025,7 60 0 0,0
01.12.2020 23:00:00 6,5 2,9 4,1 10,1 11,6 12 6 23 12 N 1026,1 60 0 0,0
01.12.2020 22:00:00 6,1 2,4 4,0 10,1 11,6 10 6 23 13 N 1026,4 60 0 0,0
01.12.2020 21:00:00 6,8 2,7 5,1 10,2 11,6 14 8 27 14 N 1026,2 60 0 0,0
01.12.2020 20:00:00 7,0 2,7 5,2 10,2 11,6 14 8 29 15 N 1026,1 60 0 0,0
01.12.2020 19:00:00 6,8 2,5 5,2 10,2 11,6 16 9 27 15 N 1026,2 60 0 0,0
01.12.2020 18:00:00 7,0 3,1 5,2 10,3 11,7 17 9 29 16 N 1026,2 60 0 0,0
01.12.2020 17:00:00 7,2 2,7 5,8 10,3 11,6 15 8 24 13 N 1026,3 60 21 0,0
01.12.2020 16:00:00 7,4 3,3 6,9 10,2 11,6 16 8 32 18 N 1026,2 53 28 0,0
01.12.2020 15:00:00 7,7 3,4 7,6 10,3 11,6 18 10 31 17 N 1026,4 46 29 0,0
01.12.2020 14:00:00 8,6 4,4 9,6 10,2 11,6 19 10 32 17 N 1026,8 35 52 0,0
01.12.2020 13:00:00 8,1 4,5 8,5 10,3 11,7 17 9 34 18 N 1027,0 45 28 0,0
01.12.2020 12:00:00 8,8 4,8 9,4 10,3 11,7 23 13 37 20 N 1026,9 19 36 0,0
01.12.2020 11:00:00 8,3 4,7 7,4 10,3 11,7 22 12 35 19 N 1026,9 32 31 0,0
01.12.2020 10:00:00 7,5 4,4 6,2 10,4 11,7 19 10 33 18 N 1026,8 41 33 0,0
01.12.2020 09:00:00 7,1 4,1 5,3 10,4 11,7 20 11 38 21 N 1026,4 56 1 0,0
01.12.2020 08:00:00 6,9 3,1 5,1 10,4 11,7 18 10 36 19 N 1026,0 60 0 0,0
01.12.2020 07:00:00 7,1 2,0 4,8 10,4 11,6 18 10 36 19 N 1025,7 60 0 0,0
01.12.2020 06:00:00 7,1 2,4 5,5 10,4 11,7 21 11 36 19 N 1025,3 60 0 0,0
01.12.2020 05:00:00 7,4 3,3 5,9 10,5 11,7 20 11 34 19 N 1025,0 59 0 0,0
01.12.2020 04:00:00 8,2 3,6 7,2 10,5 11,7 22 12 37 20 N 1024,8 60 0 0,0
01.12.2020 03:00:00 9,0 5,6 7,9 10,5 11,7 20 11 47 25 N 1024,6 51 0 0,0
01.12.2020 02:00:00 10,9 8,5 10,3 10,5 11,7 24 13 45 24 NNW 1024,1 60 0 0,0
01.12.2020 01:00:00 11,0 9,4 10,5 10,5 11,7 26 14 51 28 NW 1024,0 46 0 0,0
01.12.2020 00:00:00 11,0 9,1 10,3 10,4 11,7 26 14 55 30 NW 1024,1 57 0 0,0
30.11.2020 23:00:00 10,9 8,8 10,2 10,4 11,7 36 19 57 31 WNW 1024,1 46 0 0,0
30.11.2020 22:00:00 10,8 9,2 9,9 10,4 11,7 34 18 55 30 WNW 1024,2 17 0 0,0
30.11.2020 21:00:00 10,2 9,3 9,3 10,4 11,7 28 15 44 24 W 1024,7 15 0 0,0
30.11.2020 20:00:00 9,9 9,0 9,3 10,4 11,7 26 14 39 21 W 1024,9 6 0 0,6
30.11.2020 19:00:00 10,6 9,2 9,9 10,4 11,7 27 14 41 22 W 1025,3 10 0 0,0
30.11.2020 18:00:00 10,5 8,9 10,0 10,4 11,7 25 13 36 19 W 1025,4 12 0 0,0
30.11.2020 17:00:00 10,5 8,8 9,9 10,3 11,7 23 12 36 19 W 1025,4 15 0 0,0
30.11.2020 16:00:00 10,7 8,8 10,5 10,3 11,7 24 13 38 21 W 1025,6 19 0 0,0
30.11.2020 15:00:00 10,9 8,6 11,1 10,3 11,7 23 12 31 17 WZW 1026,0 20 4 0,0
30.11.2020 14:00:00 11,4 9,3 12,2 10,2 11,7 21 11 30 16 WZW 1026,5 18 20 0,0
30.11.2020 13:00:00 10,9 9,0 11,7 10,3 11,7 19 10 30 16 WZW 1027,0 14 42 0,0
30.11.2020 12:00:00 10,8 9,1 12,2 10,3 11,7 23 12 31 17 W 1028,6 12 60 0,0
30.11.2020 11:00:00 9,6 9,0 8,2 10,3 11,7 15 8 21 11 W 1028,8 7 42 0,0
30.11.2020 10:00:00 8,0 7,7 6,4 10,3 11,7 12 7 16 9 W 1028,5 6 1 0,0
30.11.2020 09:00:00 6,7 6,6 3,5 10,4 11,7 5 3 10 5 W 1028,8 3,3 0 0,0
30.11.2020 08:00:00 5,7 5,6 0,6 10,5 11,7 5 3 8 4 W 1028,4 1,9 0 0,0
30.11.2020 07:00:00 5,4 5,3 -1,5 10,5 11,7 6 3 7 4 ZZW 1028,1 0,8 0 0,0
30.11.2020 06:00:00 4,4 4,3 -1,7 10,6 11,7 5 3 7 4 Z 1027,9 0,2 0 0,0
30.11.2020 05:00:00 4,7 4,4 -1,7 10,6 11,7 5 3 6 4 ZZO 1027,8 0,2 0 0,0
30.11.2020 04:00:00 4,5 4,2 -1,0 10,6 11,8 5 3 7 4 Z 1028,0 0,2 0 0,0
30.11.2020 03:00:00 5,1 4,7 -1,2 10,6 11,7 0 0 7 4 N 1028,1 0,2 0 0,0
30.11.2020 02:00:00 6,1 5,5 0,3 10,7 11,7 5 3 9 5 ZO 1027,9 2,6 0 0,0
30.11.2020 01:00:00 7,2 6,3 5,2 10,7 11,8 6 3 13 7 OZO 1027,7 4,7 0 0,0
30.11.2020 00:00:00 8,2 7,1 7,3 10,7 11,8 6 4 18 10 O 1027,7 6 0 0,0
29.11.2020 23:00:00 8,4 7,3 7,8 10,7 11,8 9 5 19 10 O 1027,4 6 0 0,0
29.11.2020 22:00:00 8,2 7,3 7,0 10,7 11,7 9 5 26 14 O 1027,4 6 0 0,0
29.11.2020 21:00:00 8,3 7,4 7,4 10,7 11,7 16 9 23 13 O 1026,9 6 0 0,0
29.11.2020 20:00:00 8,6 7,5 8,3 10,7 11,8 16 9 28 15 ONO 1026,8 7 0 0,0
29.11.2020 19:00:00 8,6 7,7 8,3 10,7 11,8 15 8 29 16 ONO 1026,6 7 0 0,0
29.11.2020 18:00:00 8,6 7,8 7,9 10,7 11,8 14 8 27 15 ONO 1026,2 6 0 0,0
29.11.2020 17:00:00 8,7 7,6 8,0 10,7 11,8 16 9 29 15 O 1025,5 6 3 0,0
29.11.2020 16:00:00 9,7 8,3 10,1 10,7 11,8 17 9 35 19 O 1025,1 8 47 0,0
29.11.2020 15:00:00 10,9 9,0 12,2 10,6 11,8 18 10 34 18 ONO 1024,7 10 51 0,0
29.11.2020 14:00:00 10,6 8,7 11,4 10,6 11,8 19 10 31 17 ONO 1024,6 12 28 0,0
29.11.2020 13:00:00 11,3 9,6 12,1 10,6 11,8 18 10 31 17 ONO 1024,6 11 27 0,0
29.11.2020 12:00:00 12,2 10,1 12,5 10,6 11,8 16 8 31 17 ONO 1024,7 11 50 0,0
29.11.2020 11:00:00 11,5 10,2 10,2 10,6 11,8 15 8 26 14 ONO 1024,5 7 18 0,0
29.11.2020 10:00:00 10,5 9,9 7,9 10,6 11,8 13 7 21 11 ONO 1024,0 4,9 0 0,0
29.11.2020 09:00:00 9,5 9,0 7,1 10,7 11,8 11 6 18 10 ONO 1023,4 3,4 0 0,0
29.11.2020 08:00:00 9,0 8,4 5,9 10,7 11,8 12 7 17 9 ONO 1022,7 4,2 0 0,0
29.11.2020 07:00:00 8,1 7,2 4,6 10,7 11,8 11 6 18 10 O 1022,3 6 0 0,0
29.11.2020 06:00:00 7,5 5,1 4,8 10,8 11,8 10 6 16 9 O 1021,8 29 0 0,0
29.11.2020 05:00:00 7,2 5,2 4,2 10,8 11,8 11 6 17 9 O 1021,7 20 0 0,0
29.11.2020 04:00:00 7,1 5,2 4,4 10,8 11,8 9 5 15 8 O 1021,4 20 0 0,0
29.11.2020 03:00:00 7,2 5,3 4,9 10,9 11,8 10 5 21 11 OZO 1021,2 19 0 0,0
29.11.2020 02:00:00 8,1 6,1 6,0 10,9 11,8 13 7 21 11 O 1020,5 18 0 0,0
29.11.2020 01:00:00 8,9 7,8 7,1 10,9 11,8 12 7 23 12 O 1020,2 7 0 0,0
29.11.2020 00:00:00 9,4 7,8 7,6 10,9 11,8 15 8 26 14 O 1020,1 13 0 0,0
28.11.2020 23:00:00 9,9 8,3 8,1 10,9 11,8 18 10 29 16 O 1019,5 15 0 0,0
28.11.2020 22:00:00 9,7 8,8 7,8 10,9 11,8 15 8 23 13 O 1019,2 10 0 0,0
28.11.2020 21:00:00 9,7 9,1 7,4 11,0 11,8 13 7 20 11 O 1018,9 5 0 0,0
28.11.2020 20:00:00 9,5 8,9 7,6 11,0 11,8 10 6 21 11 O 1018,4 3,6 0 0,0
28.11.2020 19:00:00 9,9 9,1 8,4 11,0 11,8 15 8 22 12 O 1017,7 6 0 0,0
28.11.2020 18:00:00 9,6 8,7 8,2 10,9 11,8 14 7 24 13 O 1017,1 8 0 0,0
28.11.2020 17:00:00 10,2 9,0 9,5 10,9 11,8 16 9 30 16 O 1016,5 8 29 0,0
28.11.2020 16:00:00 11,9 9,3 14,0 10,9 11,8 19 10 27 15 O 1016,0 20 60 0,0
28.11.2020 15:00:00 12,5 9,3 15,6 10,8 11,8 14 7 21 12 O 1015,6 16 60 0,0
28.11.2020 14:00:00 13,3 9,4 15,0 10,8 11,8 14 8 22 12 ZO 1015,5 19 60 0,0
28.11.2020 13:00:00 12,7 9,7 14,8 10,8 11,8 14 7 23 12 OZO 1015,5 16 60 0,0
28.11.2020 12:00:00 12,6 9,8 14,0 10,8 11,8 13 7 21 11 OZO 1015,3 12 60 0,0
28.11.2020 11:00:00 11,6 9,7 12,1 10,8 11,8 13 7 21 12 ZO 1015,0 8 60 0,0
28.11.2020 10:00:00 10,6 9,5 9,3 10,8 11,8 13 7 19 10 ZO 1014,8 10 56 0,0
28.11.2020 09:00:00 9,6 9,1 8,8 10,8 11,8 10 5 16 9 ZO 1014,3 4,8 0 0,0
28.11.2020 08:00:00 9,6 9,1 8,9 10,8 11,8 13 7 19 10 ZO 1014,0 6 0 0,0
28.11.2020 07:00:00 9,7 9,1 9,1 10,8 11,8 10 5 18 10 OZO 1013,5 8 0 0,0
28.11.2020 06:00:00 9,8 9,3 8,9 10,8 11,8 11 6 19 11 OZO 1013,2 4,8 0 0,0
28.11.2020 05:00:00 9,5 9,0 8,0 10,8 11,8 12 6 20 11 OZO 1013,1 4,4 0 0,0
28.11.2020 04:00:00 9,2 8,7 8,2 10,8 11,8 9 5 22 12 OZO 1013,3 2,7 0 0,2
28.11.2020 03:00:00 9,5 8,9 8,6 10,8 11,8 13 7 22 12 ZO 1013,1 4,0 0 0,0
28.11.2020 02:00:00 9,4 8,9 7,9 10,9 11,8 15 8 23 12 ZO 1013,0 4,5 0 0,0
28.11.2020 01:00:00 8,6 8,3 6,7 10,9 11,8 10 5 14 8 ZO 1013,5 1,9 0 0,0
28.11.2020 00:00:00 8,7 8,2 7,4 10,9 11,8 10 5 18 10 ZZO 1013,7 2,2 0 0,0

tt = temperatuur
td = dauwpunt
tt 5cm = temperatuur 5cm
tt -20cm = temperatuur -20cm
tt -100cm = temperatuur -100cm
ff = windsnelheid
fx = windstoten
dd = windrichting
ppp = luchtdruk
vv = zicht
sd = Zonneschijnduur
rr = neerslag

Weerstations in de omgeving